Temp
37 26 25 27 30 31 29 26 27 32 39 35 34 35 39 45 43 41 41 44 44 44 51 52 54 56 57 58 58 58 59 60 61 61 61 62 61 63 64 67 70 69 69 68
33 28 34 36 35 32 29 30 30 34 39 36 35 34 40 43 43 44 41 42 41 42 47 51 53 55 56 56 57 58 59 60 61 62 63 63 64 65 64 67 69 68 67 66
32 33 41 37 36 34 33 31 31 29 35 36 33 29 34 41 41 41 42 42 42 44 46 49 53 54 54 55 56 61 61 61 61 61 62 62 64 64 63 64 65 67 68 67
35 38 36 34 33 35 30 38 37 33 31 25 36 23 30 36 38 39 38 39 42 43 47 50 52 53 54 54 55 57 60 60 60 59 61 59 62 61 63 63 64 65 65 65
30 33 36 34 35 38 32 42 38 35 33 32 30 26 29 37 35 39 40 42 44 43 46 50 52 54 54 55 55 56 59 59 58 58 61 59 61 62 62 62 62 63 64 65
37 43 39 38 41 43 44 39 37 36 33 22 31 27 27 32 35 38 41 42 44 46 47 50 52 53 55 57 58 58 58 60 58 59 60 59 59 59 59 60 59 60 60 60
37 37 39 41 36 43 39 32 22 19 17 21 33 29 31 36 39 42 43 46 48 49 49 50 51 52 53 54 54 56 58 59 58 60 60 59 59 59 59 59 59 59 59 59
29 26 35 41 38 35 35 33 28 21 23 23 35 27 31 39 42 45 47 47 49 48 50 50 50 50 51 51 52 52 59 59 60 60 60 60 60 59 59 59 59 58 59 59
27 29 42 43 45 42 37 34 38 31 33 23 29 33 37 39 37 42 43 45 45 47 47 47 48 48 49 50 51 52 53 54 55 56 58 59 60 59 59 59 59 59 59 60
35 30 40 45 46 43 41 43 31 30 24 21 26 29 28 32 33 36 38 41 44 45 45 46 47 49 51 51 51 52 53 53 53 54 55 57 59 60 59 59 59 59 60 60
36 33 34 40 36 35 35 34 36 36 32 24 23 27 37 34 35 36 39 42 44 46 46 47 48 49 49 50 50 51 51 52 52 53 54 55 54 56 57 58 58 59 60 60
38 33 26 33 39 40 38 35 34 25 30 28 28 28 44 42 42 43 45 46 46 45 45 46 45 46 46 46 47 47 48 49 49 51 51 51 52 53 54 54 54 55 56 58
38 29 22 29 34 37 34 36 35 34 33 26 25 29 44 43 43 42 42 41 42 43 43 41 41 42 42 43 44 45 46 46 48 48 48 48 48 49 49 50 51 52 52 53
44 32 29 21 30 32 31 33 34 30 21 26 26 32 35 36 38 38 38 39 39 40 41 41 40 38 38 41 42 43 43 44 44 45 45 45 45 46 47 47 48 48 49 49
39 30 27 33 34 34 34 33 33 26 29 26 30 29 34 36 37 38 40 40 41 39 40 39 38 37 37 37 39 40 41 42 43 42 42 42 43 44 44 45 45 46 46 47
38 31 30 30 34 34 33 35 35 33 32 31 31 32 38 37 38 39 38 39 38 38 38 38 38 37 36 34 37 38 39 39 41 40 40 42 42 43 42 42 42 43 43 43
35 31 27 25 30 31 28 32 34 33 34 34 29 35 37 36 39 39 39 40 37 36 36 36 36 36 36 36 37 36 37 39 38 38 40 40 41 40 40 41 41 40 40 41
34 31 29 23 27 18 34 36 36 36 37 37 36 37 38 38 37 36 37 38 37 37 36 36 36 35 36 37 36 36 36 36 37 37 37 38 38 38 41 41 41 41 41 40
36 31 28 23 21 29 30 35 35 34 36 39 38 38 39 38 35 35 39 37 36 34 37 36 36 35 34 34 34 35 35 35 35 35 36 37 37 37 39 38 38 39 39 39
35 33 29 25 22 24 33 36 39 38 30 38 40 38 37 36 30 33 37 37 36 37 37 36 35 35 33 32 33 33 33 34 35 36 36 37 37 36 37 38 38 38 38 38
29 28 25 25 22 29 35 38 40 27 35 36 39 38 36 34 36 37 37 35 36 36 35 34 32 32 32 33 34 34 34 34 37 38 38 38 37 36 36 38 38 37 37 38
30 26 25 25 22 23 38 37 35 39 35 37 38 38 38 37 36 36 36 36 37 35 35 35 33 33 33 34 35 34 33 36 38 38 37 37 37 38 38 36 36 37 37 36
28 33 30 31 31 39 39 39 41 39 40 38 39 39 39 37 36 37 36 33 35 35 35 35 33 32 33 33 33 32 34 35 36 36 34 37 38 37 37 36 35 35 36 35
33 34 33 34 35 36 40 42 39 40 40 40 39 39 39 38 37 36 35 35 34 34 34 33 32 31 30 31 32 31 32 36 33 30 34 36 35 34 34 35 36 35 34 34
36 35 33 32 37 37 41 40 42 41 41 39 39 39 39 38 35 35 34 34 34 33 33 32 31 31 31 31 30 31 31 32 29 31 33 33 34 33 33 35 35 35 36 36
36 37 34 36 40 41 40 39 39 40 40 40 39 37 37 38 36 36 34 34 33 32 32 31 31 30 30 30 30 31 31 30 28 31 32 32 33 33 33 33 33 38 38 39
MSLP
1022.00 1022.76 1022.97 1022.92 1023.32 1023.26 1023.14 1022.78 1021.99 1020.57 1019.56 1019.47 1017.72 1016.51 1014.45 1013.74 1013.85 1013.34 1013.24 1012.92 1012.75 1012.42 1011.73 1011.56 1011.49 1011.17 1011.17 1011.20 1010.97 1010.63 1010.77 1010.79 1011.20 1011.46 1011.52 1011.51 1011.32 1011.14 1011.15 1011.10 1010.94 1011.61 1012.15 1012.43
1022.45 1022.51 1022.28 1022.43 1022.57 1022.57 1022.60 1022.09 1021.12 1019.74 1018.78 1018.74 1017.04 1015.32 1013.80 1013.10 1012.19 1012.09 1012.21 1012.31 1012.20 1012.06 1011.64 1011.12 1010.72 1010.57 1010.54 1010.45 1010.18 1010.25 1010.13 1010.22 1010.48 1010.72 1010.72 1010.64 1010.23 1009.83 1009.59 1009.80 1009.52 1010.60 1011.32 1011.80
1022.24 1021.60 1021.35 1021.49 1021.44 1021.49 1021.28 1020.86 1020.01 1019.71 1018.41 1017.72 1016.89 1014.68 1013.27 1012.47 1011.81 1011.56 1011.73 1011.68 1011.64 1011.47 1011.17 1010.64 1010.15 1010.03 1010.13 1009.81 1009.76 1009.76 1009.72 1009.76 1009.89 1010.13 1010.28 1010.03 1009.49 1009.09 1008.74 1008.93 1008.92 1009.51 1010.21 1011.04
1021.70 1020.94 1020.89 1020.68 1020.43 1020.40 1020.08 1018.89 1018.96 1018.72 1018.65 1017.55 1016.83 1015.68 1013.50 1012.72 1012.34 1012.24 1012.25 1012.07 1011.41 1011.04 1010.56 1010.06 1009.84 1009.95 1009.57 1009.39 1009.46 1009.50 1009.44 1009.38 1009.44 1009.66 1009.75 1009.41 1008.43 1007.92 1008.02 1008.44 1008.78 1009.35 1010.07 1010.36
1020.97 1020.51 1020.25 1019.72 1018.93 1018.94 1018.64 1018.10 1017.89 1017.65 1017.51 1017.12 1016.55 1016.51 1013.39 1012.95 1012.48 1012.12 1011.79 1011.35 1010.62 1010.34 1010.05 1009.60 1009.55 1009.29 1009.02 1009.28 1009.52 1009.48 1009.21 1009.12 1009.29 1009.51 1009.53 1009.28 1007.82 1007.23 1007.84 1008.23 1008.77 1009.25 1009.72 1010.20
1020.41 1019.73 1019.71 1018.57 1017.81 1018.01 1017.47 1017.42 1016.95 1016.69 1016.92 1016.66 1015.61 1015.96 1014.24 1014.02 1013.50 1012.34 1011.54 1011.11 1010.29 1009.57 1009.33 1009.36 1009.53 1009.49 1009.69 1009.65 1009.60 1009.17 1008.78 1008.66 1008.96 1009.26 1009.52 1009.01 1008.64 1007.26 1007.82 1008.42 1008.95 1009.59 1010.03 1010.45
1019.27 1018.88 1018.19 1017.79 1017.73 1017.00 1017.12 1016.93 1016.67 1016.59 1016.59 1015.89 1015.15 1015.40 1014.72 1014.26 1013.16 1012.16 1011.59 1011.06 1010.57 1009.98 1009.97 1010.34 1010.43 1010.27 1010.26 1010.32 1009.88 1008.86 1007.97 1008.37 1008.93 1009.13 1009.01 1008.81 1008.42 1007.73 1008.19 1008.92 1009.73 1010.14 1010.52 1010.74
1019.52 1018.00 1017.01 1016.65 1016.71 1016.65 1016.61 1016.81 1016.59 1016.36 1015.85 1015.39 1014.90 1015.07 1014.92 1014.70 1013.41 1012.49 1011.78 1011.41 1011.14 1010.85 1010.94 1010.73 1010.78 1010.64 1010.60 1010.16 1010.00 1008.72 1008.00 1008.09 1008.91 1008.88 1008.76 1008.71 1008.77 1009.03 1009.42 1009.84 1010.24 1010.45 1010.44 1011.02
1018.88 1017.50 1015.65 1015.32 1015.49 1016.09 1016.07 1016.25 1016.18 1015.95 1015.26 1015.39 1015.13 1014.86 1015.06 1014.95 1014.52 1013.69 1012.73 1012.14 1011.97 1011.95 1011.82 1012.28 1012.16 1011.55 1011.72 1011.39 1010.32 1009.11 1008.47 1008.61 1008.98 1009.21 1009.06 1009.13 1009.14 1009.41 1009.75 1009.71 1010.43 1010.51 1010.48 1010.68
1018.16 1017.62 1015.77 1014.72 1014.91 1015.43 1015.45 1015.85 1015.94 1015.76 1015.45 1015.46 1015.03 1015.15 1015.64 1015.40 1015.44 1014.94 1014.44 1013.92 1013.16 1012.88 1012.66 1012.67 1012.88 1013.12 1013.04 1012.50 1011.62 1010.92 1010.78 1010.76 1010.56 1010.14 1009.93 1009.62 1009.40 1009.51 1009.71 1010.01 1010.37 1010.41 1010.47 1010.71
1018.05 1018.09 1016.24 1015.48 1014.97 1015.53 1015.62 1015.57 1015.67 1015.58 1015.69 1015.89 1015.71 1015.94 1015.84 1016.02 1016.05 1015.83 1015.40 1015.11 1014.69 1014.40 1014.07 1013.96 1013.90 1013.79 1013.66 1013.26 1012.89 1012.45 1012.08 1011.85 1011.75 1011.63 1011.23 1010.84 1010.64 1010.63 1010.66 1010.64 1010.71 1010.65 1010.52 1010.45
1017.88 1018.07 1017.52 1015.82 1015.23 1015.47 1015.60 1015.81 1015.82 1016.01 1015.89 1016.20 1016.39 1016.50 1015.94 1016.09 1016.12 1016.05 1015.84 1015.60 1015.50 1015.34 1015.29 1015.14 1014.87 1014.64 1014.27 1014.14 1013.86 1013.61 1013.32 1013.11 1013.00 1012.71 1012.30 1011.88 1011.57 1011.38 1011.37 1011.32 1011.31 1011.08 1010.65 1010.46
1017.89 1018.42 1018.05 1016.15 1015.85 1015.98 1016.20 1016.28 1016.15 1016.09 1015.98 1016.52 1016.61 1016.52 1015.77 1015.94 1016.17 1016.29 1016.26 1016.19 1016.09 1016.01 1015.78 1015.74 1015.82 1015.76 1015.51 1015.35 1014.98 1014.75 1014.35 1014.08 1013.61 1013.30 1013.14 1013.02 1012.71 1012.46 1012.42 1012.36 1012.02 1011.60 1011.49 1011.32
1017.96 1018.68 1018.91 1018.46 1017.75 1017.28 1016.72 1016.44 1016.52 1016.38 1016.70 1016.71 1016.53 1016.09 1016.14 1016.31 1016.36 1016.36 1016.46 1016.47 1016.55 1016.58 1016.59 1016.55 1016.33 1016.44 1016.22 1015.75 1015.14 1014.77 1014.60 1014.50 1014.33 1014.31 1014.18 1013.96 1013.84 1013.59 1013.37 1013.04 1012.66 1012.40 1011.99 1011.76
1018.20 1018.78 1018.87 1018.35 1017.83 1017.29 1016.66 1016.48 1016.41 1016.43 1016.40 1016.61 1016.24 1016.40 1016.15 1016.32 1016.24 1016.18 1016.26 1016.45 1016.63 1016.74 1016.86 1016.87 1016.95 1017.04 1016.92 1016.72 1016.46 1016.11 1015.63 1015.33 1014.96 1014.87 1014.67 1014.55 1014.42 1014.19 1014.07 1013.80 1013.51 1013.18 1012.74 1012.21
1018.36 1018.81 1019.03 1018.53 1017.69 1017.23 1016.66 1016.02 1016.01 1016.16 1016.34 1016.13 1016.25 1016.19 1015.48 1015.74 1015.99 1016.22 1016.42 1016.70 1016.97 1017.14 1017.31 1017.43 1017.61 1017.84 1017.77 1017.64 1017.28 1016.95 1016.62 1015.80 1015.41 1015.33 1015.31 1015.06 1014.73 1014.41 1014.04 1013.74 1013.44 1013.12 1012.71 1012.31
1018.87 1019.13 1019.59 1019.19 1018.20 1017.32 1016.47 1015.22 1015.38 1015.48 1015.63 1015.96 1016.25 1015.56 1015.51 1015.86 1016.00 1016.13 1016.42 1016.68 1017.04 1017.35 1017.65 1017.80 1017.98 1018.07 1018.09 1018.12 1017.71 1017.19 1016.75 1016.35 1015.96 1016.10 1015.82 1015.56 1015.36 1014.88 1014.43 1014.28 1014.23 1013.44 1012.81 1012.24
1019.14 1019.57 1019.87 1019.68 1018.70 1017.47 1015.12 1014.72 1014.75 1015.02 1014.86 1014.94 1015.02 1015.25 1015.37 1015.75 1016.04 1016.19 1016.30 1016.62 1017.03 1017.35 1017.73 1018.02 1018.20 1018.28 1018.20 1017.95 1017.77 1017.47 1017.14 1016.58 1016.63 1016.52 1016.29 1015.98 1015.72 1015.41 1014.95 1014.48 1014.13 1013.61 1013.12 1012.67
1019.32 1019.82 1020.18 1020.12 1019.40 1016.64 1014.78 1014.44 1014.54 1014.59 1013.72 1013.58 1014.32 1014.86 1015.47 1015.99 1016.33 1016.39 1016.41 1016.60 1016.91 1017.29 1017.65 1018.05 1018.25 1018.20 1018.20 1018.18 1017.99 1017.79 1017.40 1017.18 1017.13 1016.59 1016.24 1015.98 1015.64 1015.35 1014.91 1014.43 1014.11 1013.69 1013.08 1012.71
1019.46 1019.72 1020.28 1020.42 1019.48 1016.89 1014.39 1013.96 1013.91 1014.12 1013.83 1012.65 1013.38 1014.50 1015.36 1015.95 1016.70 1016.38 1016.37 1016.85 1017.18 1017.29 1017.64 1017.99 1018.29 1018.32 1018.32 1018.04 1017.68 1017.40 1017.30 1017.01 1016.57 1016.45 1016.44 1016.19 1015.66 1015.38 1015.00 1014.66 1014.24 1013.74 1013.15 1012.33
1019.77 1020.18 1020.34 1019.95 1018.93 1016.00 1014.15 1013.85 1013.95 1014.21 1013.49 1012.80 1013.40 1014.22 1015.19 1016.00 1015.89 1015.95 1016.28 1016.82 1017.12 1017.38 1017.43 1017.61 1018.15 1018.05 1017.59 1017.35 1017.16 1017.17 1017.18 1016.80 1016.68 1016.34 1016.11 1015.74 1015.61 1015.49 1015.09 1014.66 1013.80 1013.55 1012.70 1011.71
1019.41 1019.66 1019.77 1019.48 1018.41 1015.99 1014.20 1014.46 1014.13 1012.77 1012.70 1012.89 1013.36 1013.94 1014.71 1015.06 1015.66 1016.14 1016.60 1016.99 1017.18 1017.39 1017.16 1017.04 1017.43 1017.86 1017.97 1017.76 1017.39 1017.30 1017.24 1017.06 1016.85 1016.64 1016.32 1015.81 1015.31 1014.80 1014.40 1014.02 1013.50 1012.79 1012.04 1011.44
1018.93 1018.11 1018.30 1018.04 1015.78 1014.17 1013.87 1013.33 1012.68 1012.65 1012.73 1013.02 1013.45 1013.88 1014.36 1015.04 1015.60 1015.86 1016.16 1016.33 1016.56 1016.77 1017.18 1017.47 1017.66 1017.72 1017.57 1017.60 1017.88 1018.32 1018.08 1017.86 1017.70 1017.26 1016.75 1016.11 1015.56 1015.05 1014.58 1013.99 1013.32 1012.62 1011.85 1010.93
1017.77 1017.30 1017.16 1016.45 1013.87 1013.37 1013.05 1012.63 1012.77 1012.71 1012.84 1012.83 1013.14 1013.54 1014.01 1014.42 1014.92 1015.37 1015.61 1016.03 1016.46 1016.86 1017.35 1017.72 1017.96 1018.26 1018.39 1018.32 1018.44 1018.52 1018.19 1017.78 1017.61 1017.28 1016.69 1016.08 1015.57 1014.94 1014.25 1013.62 1012.95 1012.12 1011.35 1010.45
1016.74 1016.60 1015.72 1014.87 1013.12 1012.55 1012.12 1011.79 1011.61 1011.89 1012.34 1012.79 1013.09 1013.37 1013.82 1014.42 1014.98 1015.30 1015.85 1016.43 1016.76 1017.12 1017.45 1017.66 1017.94 1018.10 1018.20 1018.10 1018.10 1018.02 1017.82 1017.64 1017.38 1017.11 1016.48 1015.82 1015.27 1014.52 1013.65 1012.95 1012.33 1011.58 1010.81 1010.08
1014.87 1013.87 1014.20 1012.92 1011.80 1011.67 1011.16 1010.85 1011.11 1011.68 1011.86 1012.14 1012.80 1013.34 1013.73 1014.17 1014.67 1015.29 1015.92 1016.28 1016.60 1016.89 1017.19 1017.49 1017.80 1017.99 1018.06 1018.00 1017.88 1017.75 1017.53 1017.47 1016.98 1016.42 1015.95 1015.48 1014.87 1014.27 1013.66 1012.76 1011.38 1011.24 1010.25 1009.06
Wind_Speed
3 5 5 5 4 3 3 4 12 15 13 12 14 18 24 18 12 15 13 16 11 11 11 9 8 9 7 7 8 8 8 10 8 7 7 9 9 10 11 12 16 16 14 15
3 6 7 7 6 5 5 12 16 17 13 5 14 22 24 21 17 15 12 13 10 7 7 11 9 7 7 7 5 6 8 8 9 8 8 6 7 12 13 13 13 17 17 14
4 6 3 4 8 9 9 11 14 13 8 12 11 11 4 5 5 2 6 8 6 10 11 10 8 8 7 7 5 4 8 9 7 7 5 8 11 8 8 9 10 12 18 17
6 4 4 6 10 8 10 8 13 15 9 4 3 8 5 7 6 8 7 7 9 9 10 7 6 7 7 5 4 5 5 7 5 5 6 8 11 10 7 7 7 10 13 13
6 3 5 9 8 8 9 4 8 13 8 5 4 4 8 7 10 18 14 11 9 5 7 7 8 7 3 1 4 6 7 7 5 4 5 6 7 7 5 5 7 6 9 12
10 4 5 7 4 10 10 12 10 5 1 3 3 6 4 9 12 14 9 9 8 8 3 4 3 5 6 6 6 10 9 7 5 5 5 1 6 10 8 7 5 4 3 3
4 5 5 5 5 4 5 2 4 4 4 5 4 4 2 14 18 11 6 7 10 11 10 11 12 9 9 9 11 14 9 8 7 4 7 5 7 10 10 8 4 3 3 2
3 8 7 7 7 3 2 1 2 4 2 4 2 7 4 12 16 9 7 10 8 13 9 13 12 11 11 13 12 14 11 8 10 3 5 6 7 5 5 5 3 2 3 2
2 7 4 6 4 4 2 1 1 4 2 3 3 2 3 14 15 15 14 16 12 12 11 12 11 15 13 12 13 14 19 17 13 8 6 2 4 5 4 5 2 0 2 1
4 7 3 5 4 4 3 1 3 3 4 3 4 3 5 13 14 11 13 13 14 15 14 12 13 10 10 11 12 17 15 15 12 12 11 8 4 5 3 3 3 4 5 5
3 1 8 2 1 2 4 3 3 3 1 2 4 4 4 6 8 9 8 4 6 8 9 11 11 10 10 10 11 13 14 15 14 11 11 12 10 10 8 5 4 4 6 8
1 1 5 8 2 2 3 3 2 3 3 3 2 3 3 5 6 3 4 7 8 9 9 9 9 9 11 11 11 12 12 12 10 10 9 10 10 9 9 8 6 5 6 7
0 2 6 11 6 4 4 3 3 1 3 1 3 4 1 3 5 3 5 6 6 6 8 8 7 8 8 8 8 8 9 10 11 11 11 11 12 11 10 9 9 9 9 8
2 2 4 6 6 3 6 5 4 1 3 3 4 2 1 3 5 3 3 4 4 6 6 5 8 8 7 9 12 12 11 10 10 9 8 8 9 10 10 10 10 10 9 8
2 2 1 6 8 5 4 4 6 2 3 3 4 5 6 6 6 5 4 2 5 6 6 6 7 8 8 8 8 9 8 8 8 8 8 8 7 7 8 9 9 9 8 8
3 2 3 5 4 6 6 7 4 2 1 4 5 5 6 5 4 4 3 3 4 4 6 6 6 7 6 6 6 5 5 5 6 6 7 8 9 11 11 11 11 10 10 9
2 2 4 5 6 8 7 6 5 3 4 7 6 6 5 5 6 5 5 3 3 1 1 3 5 5 5 4 5 6 7 8 8 7 6 7 8 10 12 12 13 12 12 12
0 2 2 4 5 4 7 2 2 5 7 8 4 4 7 5 2 2 1 5 4 2 1 2 2 4 5 4 6 6 6 6 6 6 5 6 7 8 11 11 12 13 13 14
3 3 0 0 2 8 3 4 6 6 8 11 9 4 6 5 3 4 5 4 4 2 2 3 3 3 3 4 5 4 3 3 2 4 7 8 9 10 12 12 13 13 13 11
4 3 3 1 1 5 5 3 4 3 7 5 9 9 8 5 1 5 6 4 4 4 4 5 5 3 3 3 2 3 4 5 10 10 9 8 9 10 13 14 15 12 12 13
1 1 4 3 4 10 5 4 4 3 8 2 7 7 9 7 6 4 5 3 3 4 5 2 3 1 5 6 7 9 8 11 11 11 12 12 10 11 9 12 12 14 15 15
5 4 4 1 3 9 5 3 7 7 1 3 6 6 8 5 6 6 7 7 6 5 1 6 7 6 5 6 7 10 10 10 12 11 14 15 15 13 12 15 13 15 14 15
4 7 4 9 8 5 8 6 5 2 2 4 6 6 8 8 7 6 4 0 3 5 4 4 6 7 7 8 7 8 9 6 9 9 11 12 13 13 13 13 14 13 14 13
5 4 5 1 5 9 11 9 6 5 6 4 4 6 7 6 7 4 2 1 2 3 4 3 6 6 6 5 5 5 6 6 6 8 10 12 13 13 11 9 11 12 11 11
7 7 6 8 13 9 13 11 11 11 7 4 5 7 8 7 5 5 4 4 3 1 1 1 3 4 6 6 6 6 6 5 6 7 9 11 11 12 14 12 11 12 12 15
10 10 8 11 9 5 7 2 4 9 11 10 8 5 5 7 8 7 5 4 2 2 1 2 4 5 6 6 6 6 5 5 5 9 8 8 9 10 11 12 15 19 26 29
Wind_Direction
32 47 250 251 218 268 297 268 286 279 271 286 269 271 278 281 249 245 234 254 242 240 241 250 241 251 233 240 240 233 194 199 194 210 217 226 226 232 222 224 203 202 200 189
2 268 237 234 225 238 254 279 283 289 273 247 273 278 286 287 272 247 231 242 240 247 261 262 236 222 239 243 250 245 226 206 205 213 225 234 244 235 220 215 191 192 190 191
238 245 246 288 285 252 249 251 263 258 301 264 280 280 295 282 317 250 239 240 231 234 250 250 212 208 227 246 245 249 231 229 225 221 243 262 251 223 199 207 176 186 189 186
258 248 262 276 269 224 286 234 248 262 282 281 68 292 297 331 358 32 345 293 265 245 244 231 220 215 214 251 290 289 282 244 234 233 254 274 233 205 195 183 176 178 194 177
265 264 266 254 237 159 234 183 270 257 259 294 183 255 279 356 346 340 332 328 322 237 236 218 217 227 128 347 288 262 256 246 238 240 264 278 276 156 142 124 159 159 178 186
253 247 259 237 276 228 251 289 270 258 221 261 195 185 315 347 321 313 315 313 320 336 331 294 258 61 27 358 308 279 241 230 193 211 195 252 347 93 95 85 80 82 90 128
247 226 248 197 269 251 224 316 313 338 5 246 340 207 350 325 316 290 324 17 40 38 61 60 45 37 17 360 341 321 210 195 155 224 159 136 93 68 74 77 75 115 125 75
315 331 194 165 206 181 182 250 310 307 308 291 316 338 14 348 351 35 44 34 51 57 47 65 30 27 9 4 353 330 88 164 137 127 94 109 103 86 90 100 101 70 63 35
256 273 272 196 157 147 67 337 294 269 230 11 294 303 188 6 5 11 32 23 26 52 55 64 64 42 30 10 0 26 45 33 48 39 15 95 127 118 122 105 144 326 344 324
281 292 232 308 102 208 215 194 296 313 333 355 331 3 7 350 357 355 26 5 26 42 41 45 56 46 41 30 24 33 40 45 33 22 21 9 111 96 87 137 210 213 213 223
306 170 290 347 218 116 342 324 250 269 183 341 334 358 6 344 344 18 12 28 36 51 55 44 39 38 36 34 31 30 31 33 31 25 28 35 36 34 30 22 355 316 269 242
253 198 275 245 202 78 192 279 272 109 306 60 98 330 315 343 291 284 64 57 53 46 47 44 32 18 26 27 27 31 30 32 25 20 20 23 29 31 30 20 7 347 344 329
167 344 326 344 12 37 64 327 293 295 14 40 125 226 80 187 265 66 83 43 32 39 34 25 29 32 24 15 21 21 30 26 18 18 19 19 18 16 13 7 1 360 352 336
99 118 163 192 242 277 308 338 336 127 97 175 231 174 220 178 156 130 95 83 58 45 35 31 25 14 5 10 12 13 18 18 17 19 21 22 12 4 359 356 355 351 347 338
92 264 151 263 257 275 278 306 1 79 183 160 210 188 233 214 194 183 164 96 47 30 24 22 19 9 7 2 5 5 9 7 8 9 12 10 2 5 358 352 345 335 331 329
358 289 20 286 324 333 292 298 326 24 129 47 126 254 206 206 182 186 190 115 58 33 17 8 8 356 354 348 354 339 324 352 7 6 2 0 1 354 348 343 341 336 331 328
32 66 38 274 342 327 314 232 209 260 196 152 200 246 162 196 211 208 211 178 161 146 1 16 7 348 341 345 336 339 338 342 354 346 350 353 347 341 343 337 329 331 330 326
351 97 112 272 358 358 243 282 232 231 255 216 249 208 191 191 168 158 226 174 179 213 283 329 293 305 323 331 312 304 316 344 346 356 344 341 340 336 335 332 329 322 319 316
164 125 300 326 242 280 274 212 191 182 279 198 203 181 177 132 130 253 187 164 174 227 262 250 244 241 263 267 293 303 340 338 314 351 355 351 344 338 337 334 329 323 314 304
80 80 130 145 255 244 239 188 184 128 289 239 162 170 160 118 156 255 181 179 221 229 215 217 231 230 226 284 306 28 12 5 9 359 343 335 342 339 333 327 322 315 310 304
294 319 206 211 252 284 244 182 164 116 242 229 172 163 154 183 196 180 150 196 222 227 224 197 203 154 12 358 12 12 358 5 347 343 338 339 336 326 315 313 317 312 308 308
196 163 217 130 256 293 154 81 174 219 228 205 167 179 181 170 161 172 183 192 191 192 45 28 25 14 350 1 8 356 350 343 340 336 336 326 324 325 326 323 316 315 314 304
252 190 198 186 222 239 216 229 252 200 206 207 181 186 176 169 192 178 192 266 13 26 5 6 15 354 350 360 9 339 310 325 317 315 313 304 312 313 309 306 307 306 309 307
250 176 224 331 240 225 232 244 240 220 230 216 200 177 172 175 172 175 144 35 7 359 356 14 7 334 308 308 304 269 288 308 307 297 294 312 309 306 307 305 313 309 304 300
204 154 204 260 279 276 255 229 232 216 213 209 181 178 184 159 186 179 189 207 212 241 309 32 303 302 299 311 297 292 283 289 293 286 307 318 320 319 319 314 313 310 300 297
183 210 186 228 222 209 254 269 207 200 202 199 173 165 175 174 177 168 193 200 190 225 283 290 281 279 282 288 279 286 301 289 298 322 319 313 314 314 314 313 310 307 303 305